User: anonymous   Login
Location: Unspecified
(0.0000°N, 0.0000°E)
Time: 01:09:43
(UTC+00:00)
Language:

GALILEO 11 (268) - Orbit

View from above orbital plane
View from above orbital plane
View from above satellite
View from above satellite

Ground track
Ground track

The orbit data is extracted from the following two-line orbital elements,

1 41175U 15079B   17292.98522135 +.00000002 +00000-0 +00000-0 0  9998
2 41175 054.9149 188.2694 0003374 302.7722 057.2723 01.70473119011450
Epoch (UTC): 19 October 2017 23:38:43
Eccentricity: 0.0003374
inclination: 54.9149°
perigee height: 23212 km
apogee height: 23232 km
right ascension of ascending node: 188.2694°
argument of perigee: 302.7722°
revolutions per day: 1.70473119
mean anomaly at epoch: 57.2723°
orbit number at epoch: 1145

The dashed part of the orbit path shows where the satellite is in the earth's shadow,  

DLR